Temp
68 61 58 65 69 70 68 64 62 67 74 71 68 68 70 74 76 75 75 75 70 66 66 66 66 65 64 62 62 61 59 58 59 60 59 60 59 61 62 62 61 59 59 59
64 57 67 71 71 66 63 60 60 66 71 69 66 65 69 72 73 75 75 72 67 64 64 64 64 62 61 60 60 60 60 58 58 59 60 59 59 60 61 60 60 58 58 57
60 66 71 66 65 62 61 58 59 60 66 67 63 60 64 71 74 73 71 72 69 64 63 63 62 61 61 59 58 59 58 57 56 56 58 58 59 58 57 58 58 56 58 56
63 70 67 65 60 62 54 66 64 60 57 49 64 48 61 67 67 65 65 67 67 67 66 64 62 61 59 58 58 59 58 57 57 55 54 53 52 51 53 53 54 55 55 55
58 62 61 58 61 65 58 65 60 58 54 53 54 49 56 66 65 62 63 64 65 65 65 63 62 61 60 59 57 57 57 56 55 54 53 51 49 51 52 51 50 50 51 52
61 69 66 63 66 65 66 58 58 57 53 41 51 51 53 59 63 64 65 65 65 64 64 63 62 62 59 59 57 56 55 54 54 53 51 49 47 47 47 46 45 45 47 47
57 60 65 66 59 63 60 53 41 40 41 40 57 53 56 65 67 67 63 64 65 65 63 60 59 60 58 56 55 55 54 51 51 51 50 48 47 46 45 44 43 43 42 42
49 46 59 65 59 57 56 54 42 33 36 43 55 46 54 68 70 69 69 67 65 63 62 61 61 59 56 55 54 53 52 50 50 49 48 48 47 45 44 43 43 42 41 42
51 52 66 66 65 63 56 50 60 46 48 41 47 54 63 66 66 66 65 66 63 62 58 59 59 57 55 53 51 50 50 49 49 48 48 46 45 44 43 42 42 41 41 42
57 47 60 62 65 64 58 62 45 45 31 31 43 47 49 52 56 60 60 61 62 62 58 58 57 55 55 53 51 49 49 48 48 48 47 46 44 44 43 42 40 40 41 41
58 52 52 59 49 51 54 51 52 50 45 34 33 41 53 50 56 55 54 51 55 59 57 57 56 55 54 53 51 49 48 47 46 47 46 45 44 43 42 40 40 40 40 40
56 51 43 49 60 63 57 51 51 37 36 36 34 34 56 56 56 54 56 58 60 54 56 56 56 53 52 53 51 49 48 45 45 46 45 44 43 42 40 39 39 39 39 39
52 46 37 42 51 57 52 54 54 52 48 39 33 39 61 61 58 57 51 51 56 54 55 55 54 52 52 51 51 49 48 46 46 45 44 42 41 40 39 38 39 40 39 38
52 47 42 36 42 49 43 49 52 49 37 38 39 42 50 53 56 55 56 58 55 51 50 53 52 52 51 50 49 47 45 46 45 43 41 39 38 38 37 38 38 38 38 35
50 39 44 46 49 49 48 48 50 47 48 38 43 45 52 57 58 54 55 56 51 48 47 50 51 49 48 47 46 45 44 43 42 38 35 35 36 36 36 36 36 35 35 34
51 38 43 40 47 47 44 48 49 49 50 49 50 48 60 62 63 59 58 57 52 49 52 52 50 48 47 45 43 41 40 39 38 34 30 30 33 32 31 33 32 33 33 32
44 38 37 32 43 43 34 43 47 49 53 51 41 51 58 57 56 55 54 55 52 47 49 48 46 43 42 41 40 37 37 37 34 31 31 29 29 28 27 31 31 29 29 29
44 42 40 33 36 23 42 54 53 50 52 54 54 55 57 57 55 55 54 54 49 49 46 42 39 39 38 38 37 36 35 33 31 29 28 30 28 25 29 26 29 27 29 28
51 44 35 30 31 38 43 47 44 42 44 54 52 54 57 57 50 45 49 44 40 37 35 35 35 35 34 33 34 33 32 32 30 27 26 26 24 24 26 24 27 28 29 28
50 48 37 34 27 23 38 51 58 54 36 54 54 53 51 50 39 37 40 37 33 33 33 32 33 33 32 32 34 29 28 27 25 26 27 28 27 25 25 28 27 29 30 28
38 37 32 32 29 35 49 53 56 34 36 51 52 50 49 42 36 34 34 33 33 33 32 33 32 31 32 34 33 29 27 26 26 27 28 28 31 30 30 30 30 30 29 29
37 34 32 33 27 25 51 50 40 43 48 49 49 49 36 33 32 31 31 31 32 32 33 34 32 31 32 33 31 28 26 28 30 28 28 28 29 31 31 30 30 29 28 26
32 38 35 38 37 48 49 46 46 51 48 50 49 42 36 32 31 31 30 31 32 33 33 35 33 31 32 34 33 28 28 31 31 30 28 28 31 31 30 28 27 27 28 27
43 49 38 39 45 49 51 53 51 50 49 50 49 40 35 32 32 31 31 31 32 34 34 35 33 32 32 36 36 33 34 34 32 31 31 31 29 28 29 29 26 23 22 22
39 37 38 38 45 43 41 48 52 49 47 45 45 40 34 33 32 32 31 32 33 34 34 35 34 34 36 38 36 37 37 36 34 33 32 31 30 27 25 24 25 23 21 22
44 41 38 36 46 43 46 49 52 47 44 44 40 35 36 36 33 33 32 33 34 33 35 35 35 37 38 38 37 38 39 37 34 33 32 31 31 30 26 24 21 26 25 25
MSLP
1009.48 1009.24 1008.20 1007.35 1006.59 1006.15 1005.58 1005.49 1005.22 1004.72 1004.30 1004.50 1004.54 1004.74 1004.98 1005.40 1005.34 1005.37 1006.05 1007.25 1008.89 1011.54 1013.65 1014.83 1015.80 1016.28 1016.77 1016.85 1016.72 1016.80 1016.95 1016.96 1016.62 1016.23 1016.18 1015.90 1015.66 1015.35 1015.26 1015.40 1015.51 1015.89 1015.85 1015.84
1008.72 1007.88 1007.42 1006.96 1006.64 1006.58 1006.82 1006.23 1005.82 1005.44 1005.22 1005.15 1005.09 1004.71 1005.18 1005.18 1004.92 1005.19 1005.70 1007.18 1009.17 1011.42 1013.34 1015.19 1016.18 1016.84 1017.18 1017.24 1017.10 1017.15 1017.18 1017.21 1017.21 1016.99 1016.71 1016.52 1016.12 1015.92 1015.83 1016.02 1016.00 1016.28 1016.15 1016.16
1007.82 1006.72 1006.30 1006.94 1006.78 1006.90 1007.11 1006.72 1006.33 1005.91 1005.70 1005.65 1005.76 1004.85 1004.74 1004.11 1004.24 1005.11 1006.68 1007.77 1009.18 1011.05 1012.64 1014.39 1016.08 1016.92 1017.40 1017.57 1017.66 1017.68 1017.81 1017.79 1017.84 1017.64 1017.39 1017.03 1016.61 1016.44 1016.61 1016.67 1016.66 1016.92 1016.64 1016.62
1007.51 1006.96 1006.24 1006.46 1007.09 1007.57 1007.04 1006.92 1006.54 1006.66 1006.75 1006.23 1006.20 1004.51 1004.19 1003.98 1004.29 1005.70 1007.01 1008.07 1009.34 1010.82 1012.32 1013.67 1015.29 1016.37 1017.63 1018.02 1018.04 1017.90 1018.04 1018.13 1018.20 1018.25 1017.95 1017.87 1017.82 1017.83 1017.80 1017.68 1017.81 1017.47 1017.39 1017.14
1007.01 1006.75 1006.74 1006.73 1006.76 1007.29 1007.16 1007.41 1007.89 1007.94 1007.59 1007.28 1006.39 1005.99 1003.22 1003.88 1003.26 1004.91 1006.91 1008.56 1009.74 1011.04 1012.52 1013.72 1014.94 1016.10 1017.34 1018.11 1018.25 1018.12 1018.30 1018.59 1018.77 1018.75 1018.72 1018.68 1018.71 1018.66 1018.64 1018.65 1018.56 1018.46 1018.24 1018.12
1007.55 1007.13 1006.88 1006.82 1006.91 1007.13 1007.85 1008.49 1008.40 1008.68 1008.38 1007.41 1006.46 1005.70 1003.24 1003.27 1002.83 1003.55 1006.21 1008.19 1009.51 1010.87 1012.20 1013.57 1014.98 1016.10 1017.28 1018.18 1018.48 1018.47 1018.59 1019.00 1019.33 1019.37 1019.41 1019.39 1019.41 1019.39 1019.25 1019.51 1019.54 1019.42 1019.26 1019.18
1007.43 1006.88 1007.03 1007.30 1007.10 1007.62 1008.47 1008.58 1008.30 1007.87 1007.65 1006.56 1005.85 1004.24 1003.07 1002.94 1002.97 1003.93 1005.97 1007.68 1009.22 1010.53 1011.83 1013.43 1014.81 1015.91 1017.24 1018.23 1018.73 1018.84 1019.07 1019.48 1019.74 1019.82 1019.83 1019.95 1019.98 1020.06 1020.03 1020.21 1020.30 1020.10 1020.07 1020.05
1006.42 1005.96 1006.11 1006.33 1006.81 1006.98 1007.54 1007.86 1008.17 1007.74 1007.53 1006.86 1006.20 1004.81 1003.89 1003.47 1003.63 1004.25 1005.59 1006.79 1008.63 1010.37 1011.62 1012.97 1014.12 1015.67 1017.23 1018.30 1018.85 1019.17 1019.51 1019.95 1020.08 1020.19 1020.20 1020.45 1020.63 1020.69 1020.88 1021.02 1020.98 1021.09 1020.95 1020.81
1005.69 1005.03 1005.08 1005.29 1006.23 1007.17 1006.96 1007.13 1007.64 1007.95 1008.37 1007.98 1007.32 1005.65 1004.64 1003.53 1003.56 1004.82 1006.02 1007.17 1008.47 1010.00 1011.57 1012.93 1014.19 1015.59 1017.03 1018.35 1019.26 1019.55 1019.76 1020.20 1020.40 1020.43 1020.65 1020.95 1021.10 1021.28 1021.49 1021.62 1021.64 1021.64 1021.46 1021.17
1006.47 1006.16 1005.91 1006.07 1006.78 1006.92 1007.38 1007.86 1008.10 1008.52 1009.46 1008.80 1007.60 1006.29 1005.59 1005.84 1006.25 1006.93 1007.77 1008.51 1008.91 1010.11 1011.67 1012.89 1014.36 1015.64 1017.01 1018.33 1019.45 1020.08 1020.10 1020.22 1020.60 1020.83 1021.04 1021.39 1021.64 1021.87 1022.05 1022.01 1022.09 1021.99 1021.90 1021.77
1008.01 1007.52 1007.12 1006.77 1008.08 1007.39 1007.40 1007.80 1008.44 1009.10 1009.67 1009.50 1008.86 1007.42 1007.84 1008.13 1008.05 1008.39 1009.31 1010.45 1010.87 1009.97 1012.13 1012.97 1014.25 1015.33 1016.56 1018.17 1019.14 1020.02 1020.45 1020.44 1020.82 1021.16 1021.45 1021.88 1022.12 1022.27 1022.43 1022.42 1022.43 1022.34 1022.26 1022.03
1009.35 1008.97 1008.28 1007.74 1007.53 1007.36 1007.80 1008.46 1008.85 1009.56 1010.12 1010.72 1010.53 1009.43 1008.01 1008.44 1008.93 1009.85 1010.34 1010.65 1010.83 1011.99 1012.05 1013.42 1014.66 1014.95 1016.41 1017.77 1018.75 1019.73 1020.45 1020.85 1021.13 1021.38 1021.66 1022.15 1022.40 1022.60 1022.65 1022.69 1022.60 1022.52 1022.51 1022.39
1011.05 1010.41 1010.03 1009.17 1008.72 1008.01 1007.89 1008.32 1008.61 1008.89 1009.13 1009.25 1009.52 1008.05 1007.80 1007.77 1008.25 1009.11 1009.89 1011.03 1011.09 1011.15 1013.15 1013.69 1015.16 1015.42 1016.26 1017.77 1018.79 1019.81 1020.52 1021.10 1021.32 1021.74 1022.15 1022.61 1022.85 1022.90 1022.82 1022.81 1022.70 1022.61 1022.74 1022.71
1012.32 1011.62 1011.08 1010.42 1009.53 1009.14 1008.91 1008.97 1008.83 1008.69 1009.20 1009.16 1008.69 1008.31 1007.58 1007.59 1007.65 1008.11 1008.93 1010.04 1011.03 1012.39 1014.97 1014.19 1015.26 1015.49 1016.75 1018.28 1019.09 1020.13 1021.00 1021.41 1021.81 1022.53 1022.95 1023.38 1023.55 1023.56 1023.41 1023.25 1023.21 1023.25 1023.14 1023.31
1012.59 1012.33 1012.06 1011.57 1010.63 1010.18 1009.62 1008.99 1008.38 1008.12 1008.22 1008.40 1007.91 1007.17 1006.57 1006.05 1006.43 1007.00 1007.98 1009.17 1010.92 1012.38 1013.88 1015.17 1015.43 1016.11 1017.75 1019.00 1019.66 1020.65 1021.47 1022.12 1022.64 1023.51 1023.89 1024.13 1024.27 1024.21 1024.11 1023.92 1023.86 1023.91 1023.72 1023.93
1012.23 1012.12 1012.39 1011.89 1011.07 1010.75 1010.25 1009.18 1008.19 1007.95 1007.70 1007.40 1007.02 1006.35 1005.87 1005.83 1005.99 1006.47 1007.75 1008.51 1010.36 1012.36 1014.20 1014.76 1016.25 1017.27 1018.14 1019.37 1020.50 1021.35 1022.19 1023.01 1023.53 1024.21 1024.82 1024.99 1024.89 1024.82 1024.72 1024.65 1024.51 1024.44 1024.46 1024.45
1012.60 1012.88 1012.78 1011.80 1011.88 1011.23 1010.43 1008.34 1008.18 1007.55 1007.18 1006.89 1006.48 1006.18 1005.97 1006.10 1006.71 1007.66 1008.80 1009.38 1010.73 1012.94 1014.44 1015.67 1017.22 1017.86 1019.15 1020.39 1021.29 1022.08 1022.92 1023.70 1024.46 1024.91 1025.22 1025.29 1025.25 1025.21 1025.16 1025.11 1025.12 1025.09 1025.11 1025.01
1012.15 1012.12 1012.41 1012.41 1012.62 1011.44 1009.09 1008.38 1008.07 1007.54 1006.95 1006.39 1006.34 1006.31 1006.60 1006.92 1007.80 1008.74 1009.96 1010.24 1011.73 1012.69 1014.60 1016.61 1017.80 1018.88 1020.38 1021.31 1022.18 1022.91 1023.66 1024.36 1024.94 1025.39 1025.72 1025.60 1025.53 1025.54 1025.50 1025.46 1025.43 1025.49 1025.39 1025.38
1011.84 1012.01 1012.19 1012.59 1011.89 1010.84 1009.21 1007.81 1008.30 1007.81 1007.08 1006.59 1006.87 1006.86 1007.05 1007.81 1009.62 1011.13 1011.90 1012.62 1013.71 1014.89 1016.32 1017.86 1019.03 1020.30 1021.42 1022.33 1023.00 1023.58 1024.17 1024.78 1025.35 1025.73 1025.96 1025.83 1025.85 1025.93 1025.86 1025.90 1025.83 1025.77 1025.63 1025.68
1010.92 1011.30 1012.15 1012.06 1011.55 1010.40 1007.56 1008.12 1007.80 1007.79 1006.81 1007.28 1007.23 1007.61 1008.37 1009.17 1011.50 1013.44 1014.50 1015.60 1016.41 1017.19 1018.14 1019.30 1020.41 1021.33 1022.30 1023.03 1023.62 1024.11 1024.70 1025.29 1025.75 1026.02 1026.03 1025.98 1026.08 1026.14 1026.14 1026.10 1026.07 1025.92 1025.77 1025.85
1010.06 1010.76 1011.26 1011.23 1011.08 1009.85 1007.79 1008.26 1008.16 1008.22 1008.24 1008.34 1008.72 1009.31 1010.08 1012.04 1014.57 1015.50 1016.42 1017.46 1018.25 1018.73 1019.44 1020.35 1021.16 1021.97 1022.74 1023.24 1023.80 1024.49 1025.07 1025.65 1026.06 1026.15 1026.15 1026.16 1026.27 1026.28 1026.31 1026.33 1026.18 1026.06 1025.95 1026.05
1010.38 1010.41 1010.51 1010.84 1010.49 1009.46 1008.51 1008.21 1008.46 1009.14 1009.27 1009.64 1009.88 1010.22 1011.78 1013.37 1015.42 1016.25 1017.46 1018.47 1019.10 1019.56 1020.20 1020.87 1021.60 1022.37 1023.02 1023.43 1023.97 1024.63 1025.31 1025.79 1026.11 1026.29 1026.36 1026.45 1026.44 1026.48 1026.51 1026.42 1026.33 1026.27 1026.21 1026.46
1010.71 1010.15 1009.76 1009.97 1008.90 1008.65 1008.43 1008.74 1008.64 1009.22 1009.53 1009.71 1010.33 1011.45 1012.99 1014.38 1016.01 1017.11 1018.10 1018.89 1019.52 1020.00 1020.49 1021.07 1021.73 1022.44 1023.04 1023.52 1024.00 1024.59 1025.21 1025.59 1025.98 1026.29 1026.55 1026.59 1026.58 1026.67 1026.89 1026.97 1026.97 1027.10 1027.01 1027.14
1010.22 1009.59 1009.48 1009.56 1008.43 1008.31 1008.25 1008.20 1008.83 1009.56 1010.04 1010.41 1011.10 1012.53 1014.08 1015.10 1016.19 1017.38 1018.29 1019.06 1019.62 1020.00 1020.45 1020.98 1021.74 1022.29 1022.73 1023.14 1023.66 1024.46 1024.87 1025.26 1025.69 1026.07 1026.32 1026.60 1026.84 1027.16 1027.21 1027.55 1027.98 1028.30 1028.39 1028.34
1011.28 1011.30 1009.41 1008.97 1008.80 1008.85 1008.64 1008.91 1008.72 1009.69 1010.67 1011.45 1012.08 1013.14 1014.58 1015.74 1016.65 1017.40 1018.25 1019.00 1019.46 1019.90 1020.41 1020.98 1021.50 1021.87 1022.22 1022.72 1023.45 1023.96 1024.44 1024.88 1025.31 1025.82 1026.16 1026.49 1026.99 1027.58 1028.08 1028.44 1028.66 1029.19 1029.39 1029.46
1010.25 1009.80 1009.05 1008.67 1008.65 1009.15 1009.11 1009.12 1009.04 1009.87 1011.02 1011.88 1012.95 1014.13 1014.97 1015.98 1016.74 1017.45 1018.27 1018.91 1019.43 1019.96 1020.43 1020.92 1021.32 1021.54 1022.03 1022.69 1023.27 1023.52 1023.95 1024.48 1025.06 1025.66 1026.05 1026.37 1026.74 1027.10 1027.95 1028.57 1029.42 1029.72 1029.74 1029.88
Wind_Speed
14 10 12 17 18 16 14 13 15 15 17 14 13 15 13 16 19 17 11 13 14 12 10 7 6 7 8 8 8 9 8 9 7 6 7 6 4 5 3 6 6 9 7 9
13 14 16 16 18 7 12 14 16 17 16 15 18 18 17 19 19 17 10 7 15 14 10 6 5 7 6 7 8 9 10 10 8 7 5 4 4 4 6 6 6 11 8 9
19 15 6 5 13 11 14 16 16 18 15 15 17 22 22 24 20 8 3 3 15 14 12 10 6 3 4 6 7 9 9 10 9 11 7 6 6 6 7 7 7 9 9 10
17 18 21 14 14 15 18 16 15 10 9 12 12 16 15 15 9 9 9 8 10 12 13 12 9 6 6 6 5 6 8 9 9 10 8 9 8 7 7 7 9 8 13 11
12 9 10 15 18 16 18 8 7 11 13 14 16 11 18 16 16 18 15 12 11 11 10 11 8 9 7 5 5 5 8 9 9 9 9 8 8 6 6 8 10 12 10 13
19 19 8 11 13 9 8 4 11 13 11 13 16 15 18 14 7 18 17 15 14 14 13 12 10 9 8 6 5 5 8 9 8 8 9 9 9 9 7 9 8 8 9 9
20 20 14 12 10 9 8 9 6 7 10 12 18 13 9 14 3 13 19 17 15 14 13 13 12 10 7 6 5 6 8 8 8 8 9 10 10 9 10 9 8 10 8 9
13 15 21 15 16 14 17 13 7 9 11 14 21 13 8 8 8 14 16 17 17 15 13 12 11 9 9 6 5 6 7 8 7 8 9 9 10 7 7 9 8 7 7 8
10 12 14 18 10 13 12 12 13 13 13 12 14 21 18 18 14 9 9 10 16 16 14 13 11 9 9 8 6 5 7 7 7 7 7 8 8 9 8 9 9 7 8 9
13 12 7 11 8 11 8 10 8 4 4 13 13 16 8 11 9 4 2 5 11 15 16 13 11 10 8 9 8 5 5 7 7 7 7 7 8 8 7 8 9 9 9 10
11 12 12 11 7 14 12 12 12 9 10 11 13 11 8 10 8 4 6 8 19 17 14 14 13 12 10 8 8 6 5 7 6 5 6 6 6 7 7 7 8 8 9 10
6 6 9 14 13 14 3 11 11 5 6 2 5 10 12 7 2 10 15 8 13 4 12 13 12 13 10 9 8 6 6 6 5 4 6 5 5 5 7 8 8 8 9 10
9 3 7 13 14 16 16 12 17 15 12 15 12 13 9 16 8 5 3 7 5 8 12 12 11 11 10 8 6 8 6 5 6 6 6 7 7 7 7 7 7 7 9 10
3 8 13 11 15 17 15 15 16 15 10 13 13 17 19 17 17 12 11 4 6 15 6 9 11 10 10 8 8 8 6 5 7 7 7 7 7 7 7 7 8 9 10 11
5 13 15 18 22 21 22 21 22 21 16 17 19 18 19 17 12 4 10 10 12 15 15 13 10 10 10 8 8 8 6 6 8 8 7 6 7 7 7 8 8 9 10 11
13 12 12 19 20 19 22 24 24 23 22 23 22 23 19 18 17 7 9 11 12 14 14 13 12 12 11 9 8 8 7 6 7 8 6 4 7 6 6 7 8 9 10 10
13 4 11 16 17 17 12 22 22 21 20 19 18 15 16 16 6 5 2 1 14 16 16 13 12 11 9 8 8 8 7 8 8 7 6 3 5 5 4 7 7 6 7 8
14 13 9 13 13 17 16 20 20 21 21 21 18 16 16 18 7 7 4 5 9 14 16 13 11 11 9 8 9 7 7 7 7 6 4 5 4 4 5 4 6 4 4 6
16 14 13 14 15 17 26 19 10 14 20 20 16 17 15 4 10 7 12 16 13 14 13 12 11 11 10 8 7 6 7 7 7 5 4 3 4 4 3 4 5 4 5 5
21 18 13 13 16 19 24 16 16 8 17 9 9 10 14 9 4 5 11 13 14 14 14 13 11 11 10 7 8 7 7 6 5 3 4 4 4 3 4 4 3 3 4 4
9 13 15 16 14 15 22 20 18 15 8 6 6 8 9 5 3 10 12 11 9 12 13 13 10 9 7 7 9 8 7 7 4 3 4 4 6 4 4 4 4 3 4 4
15 11 11 9 11 16 4 11 8 3 2 4 6 2 6 12 10 11 11 11 10 11 12 13 10 8 6 5 8 8 8 6 6 4 5 4 4 5 4 4 3 3 3 4
14 15 12 12 9 2 6 9 7 7 5 5 3 11 13 14 9 12 11 10 10 11 11 11 10 10 8 10 9 8 9 9 7 7 5 4 4 5 6 8 9 8 9 8
14 16 11 10 10 12 11 4 7 4 5 3 5 13 12 11 13 12 11 10 10 10 10 10 11 11 10 11 10 10 9 8 7 8 7 7 7 8 8 8 8 7 8 8
5 10 8 7 13 7 13 15 6 8 3 2 3 11 10 12 12 13 11 11 9 10 10 11 10 10 11 11 11 11 11 11 9 8 7 7 7 8 8 8 6 6 6 8
9 13 6 8 10 2 9 3 7 5 6 6 9 8 10 12 12 12 11 9 9 10 10 11 10 10 10 10 9 8 9 7 7 6 5 4 4 4 7 7 7 12 12 13
Wind_Direction
196 215 231 241 236 259 284 276 282 286 301 283 267 268 262 275 267 261 214 224 137 118 109 99 91 56 66 49 53 50 50 35 21 22 22 2 359 13 21 33 32 34 14 12
244 227 250 271 278 304 287 276 274 280 277 273 284 284 281 269 263 261 239 99 118 120 141 133 116 62 46 44 33 39 38 40 26 358 21 352 346 356 41 12 25 20 8 9
252 249 134 265 276 239 251 259 271 276 287 295 296 277 264 251 251 196 119 221 131 147 158 152 135 106 73 52 36 44 40 42 31 3 18 360 360 3 18 3 17 358 5 6
260 260 263 245 242 264 264 274 289 302 287 269 272 286 273 291 193 155 164 167 137 152 152 155 149 124 92 77 61 58 54 44 34 28 24 26 17 12 8 4 5 349 11 0
230 230 245 257 261 237 262 291 303 280 276 285 264 260 277 270 266 173 165 163 161 148 154 141 136 123 101 96 84 56 65 50 40 39 30 26 27 6 2 16 360 13 356 4
242 274 274 241 257 241 282 281 267 252 249 253 266 252 267 271 335 177 159 167 165 162 164 139 131 134 121 104 89 61 77 59 45 40 45 35 28 21 14 13 8 357 6 5
240 233 230 239 240 198 226 246 269 245 231 242 257 272 262 319 174 156 168 168 168 166 153 146 161 155 125 109 96 98 73 63 52 44 47 38 29 28 29 19 9 11 2 1
212 217 212 192 227 223 209 225 229 276 280 297 305 285 280 330 83 120 165 170 162 165 158 159 149 133 139 123 86 81 81 70 59 51 52 47 41 33 32 26 19 13 6 353
258 255 178 206 184 228 248 251 270 283 284 285 273 273 268 274 243 159 153 164 160 167 142 162 142 135 139 123 99 80 88 82 66 58 59 53 46 40 36 36 27 13 7 360
277 280 187 182 231 248 266 296 298 294 262 270 273 278 320 36 33 11 338 248 170 159 156 158 149 138 127 124 117 107 91 85 67 64 47 54 53 47 40 39 32 16 15 9
298 280 258 233 185 254 242 230 245 279 280 274 281 271 86 36 332 292 289 315 309 153 169 153 157 151 133 128 132 127 98 83 75 65 66 52 50 49 46 42 38 22 18 14
9 322 292 276 270 278 314 290 277 234 251 219 215 259 290 153 353 352 345 271 229 158 191 151 150 139 140 153 140 125 113 103 85 80 81 73 65 60 63 43 40 31 26 22
346 241 281 276 270 267 265 258 259 262 246 263 281 272 305 307 250 72 150 263 335 174 170 160 148 148 141 133 122 114 95 90 89 64 69 60 50 45 54 53 45 42 39 26
6 271 258 274 288 309 302 288 274 259 266 273 268 287 288 271 277 227 241 297 14 137 191 150 159 139 127 134 124 108 96 87 87 77 61 57 50 46 43 39 40 36 42 32
224 258 265 271 271 274 278 284 277 273 271 247 267 265 270 288 295 174 196 203 156 148 160 180 155 131 129 120 111 103 87 72 74 70 58 51 52 46 42 42 46 39 46 46
217 244 260 272 274 283 281 275 273 275 277 280 283 281 287 293 295 251 225 214 167 165 175 156 139 148 135 121 109 101 90 81 82 90 82 32 64 53 44 48 41 51 41 47
256 234 275 265 275 282 289 259 268 274 275 279 279 294 321 319 7 333 322 191 160 159 173 135 140 110 108 103 116 109 104 88 83 78 75 85 75 68 38 57 57 51 52 47
265 265 257 258 274 266 258 269 279 285 286 281 286 301 304 311 50 58 27 237 152 134 125 123 114 109 111 108 102 107 103 106 105 94 78 69 68 63 68 53 59 45 55 56
251 257 258 255 257 272 282 269 293 288 284 282 297 292 292 339 95 62 44 56 80 94 95 100 102 105 98 96 108 110 120 121 104 101 95 77 65 63 63 61 59 38 54 47
238 235 238 244 250 257 256 281 273 333 278 318 325 344 346 95 217 88 83 82 90 97 109 110 111 113 117 132 124 109 100 100 90 91 109 95 92 80 64 63 63 48 68 55
236 233 237 241 250 259 270 284 282 272 284 20 25 34 46 66 54 100 96 95 97 114 113 117 117 125 134 141 124 118 112 106 108 101 78 71 92 77 96 83 54 42 51 60
267 245 221 228 240 258 314 305 288 358 339 300 295 243 84 115 119 114 117 121 125 126 133 137 132 127 128 124 124 127 117 123 122 107 98 86 73 70 54 54 80 48 46 60
263 260 268 251 259 236 174 219 233 288 286 291 322 101 133 134 133 134 135 137 143 146 146 144 140 142 150 150 146 132 153 140 135 118 111 98 92 100 81 56 43 36 30 35
283 258 255 285 284 291 311 352 183 208 259 25 13 127 143 146 143 144 144 146 155 160 155 147 148 159 166 164 151 148 148 143 137 136 123 102 81 56 50 82 63 44 33 32
253 301 284 278 267 304 308 274 252 181 187 158 101 135 140 147 152 148 149 156 162 153 143 146 161 167 161 153 147 155 153 158 148 134 129 128 122 104 83 56 67 82 62 61
263 278 298 303 313 270 291 358 323 165 193 143 115 127 144 162 154 151 152 154 151 148 152 158 164 165 146 138 143 150 144 133 127 117 99 96 88 96 139 125 101 86 90 82